Cloud_Cover
0 0 0 0 0 0 0 0 0 0 0 0 0 0 0 0 0 0 0 0 0 0 2 1 0 0 0 0 0 0 0 0 0 0 0 0 3 7 3 0 0 5 3
0 0 12 0 0 0 0 0 0 0 0 0 0 0 0 0 0 0 0 0 0 0 41 3 0 0 0 0 0 0 0 0 0 0 0 3 15 73 1 0 0 14 27
0 0 0 0 0 0 0 0 0 0 0 0 0 0 0 0 0 0 0 0 0 0 0 4 4 0 0 0 0 0 0 0 0 0 0 0 9 68 26 5 5 5 24
0 0 0 10 0 0 0 2 0 0 0 0 0 0 0 0 0 0 0 0 0 0 3 19 0 1 0 0 0 0 0 0 0 0 0 1 2 3 4 5 5 5 99
0 0 0 2 0 0 0 34 20 4 5 5 5 1 0 0 0 0 0 0 0 0 20 4 4 0 0 0 0 0 0 0 0 0 0 2 23 14 24 47 16 5 88
0 0 37 0 0 3 4 0 0 0 0 3 5 4 11 0 0 0 0 0 0 0 0 0 0 0 0 0 0 0 0 0 0 0 0 0 2 1 0 6 5 5 5
0 0 0 0 0 1 10 75 61 87 36 71 9 5 5 18 13 1 1 5 1 0 0 0 0 5 0 0 2 7 0 0 0 0 0 0 0 0 0 0 3 5 5
0 0 0 5 0 2 0 3 5 5 5 12 76 73 5 5 8 5 4 4 5 0 0 0 0 4 40 4 5 100 7 0 0 0 0 0 0 0 0 0 0 5 5
0 0 0 2 0 14 2 4 1 2 2 0 2 2 5 16 6 5 5 5 5 0 0 0 5 7 100 45 96 100 100 9 5 5 2 0 0 0 0 0 4 6 13
0 4 4 2 5 2 5 24 1 0 0 0 5 3 2 6 5 5 28 6 5 1 2 0 5 27 58 49 100 100 100 100 13 12 5 5 2 0 0 0 0 5 4
4 10 65 5 0 1 4 5 49 16 1 12 16 9 68 72 22 6 38 96 87 39 12 27 11 100 5 70 48 100 100 100 100 78 96 100 5 5 0 4 0 4 4
61 72 7 5 24 25 4 13 25 34 50 25 43 54 59 43 18 100 75 66 100 100 67 82 34 100 48 23 32 71 100 95 100 100 100 100 76 12 4 0 3 0 1
100 100 96 100 100 91 88 11 39 100 100 100 100 84 83 100 97 43 44 100 100 100 44 93 81 98 47 100 14 26 56 100 100 100 100 100 99 40 14 5 5 10 0
67 86 100 100 100 100 100 58 91 100 100 100 100 100 100 97 100 100 100 100 100 100 99 92 88 96 76 92 73 82 98 98 100 100 100 100 93 5 5 5 8 100 5
51 97 100 100 100 100 100 85 90 95 100 100 100 100 100 100 87 100 100 100 100 99 100 100 100 100 98 100 100 76 96 100 100 100 100 100 98 10 5 5 45 100 16
87 100 100 100 100 100 100 100 100 100 99 100 100 100 100 100 100 94 100 100 100 100 100 100 100 100 100 100 100 100 100 100 100 100 100 100 100 100 90 84 33 41 15
100 100 100 100 100 100 100 100 100 100 100 100 100 100 100 100 82 69 100 100 100 100 100 100 100 100 100 100 100 100 100 100 100 100 100 100 100 100 100 5 98 22 8
100 100 34 38 80 100 100 99 100 23 77 100 100 100 100 100 100 100 98 100 100 100 100 100 100 100 100 100 100 100 100 100 100 100 100 100 100 100 100 68 82 100 5
100 78 98 100 96 65 33 23 18 5 1 0 0 0 0 2 13 31 97 86 99 88 100 100 100 100 100 100 100 100 100 100 100 100 100 100 60 100 95 100 94 100 69
100 100 100 100 75 28 4 9 0 0 0 0 0 0 0 0 0 4 8 70 99 100 99 80 100 100 100 100 100 100 100 100 100 100 100 100 100 100 100 100 100 100 100
32 74 15 5 5 2 0 4 4 0 0 0 0 0 0 0 0 0 0 0 61 88 100 87 100 100 100 100 100 100 100 100 100 100 100 100 100 100 100 100 100 100 100
77 58 27 6 5 5 5 4 5 5 0 1 0 0 0 0 0 0 0 0 6 16 71 81 100 100 100 100 100 100 99 100 100 100 100 100 100 100 100 100 100 100 100
55 22 25 14 3 2 12 82 44 5 2 1 0 2 0 0 0 0 0 4 2 4 6 98 90 100 100 100 100 100 100 100 96 100 100 98 100 100 100 100 100 99 100
99 98 100 98 96 84 38 9 5 14 11 94 25 35 33 8 26 36 35 18 28 26 10 41 91 100 100 100 91 100 100 100 100 100 100 100 100 100 100 100 100 100 100
82 67 5 21 93 100 97 99 28 5 14 88 99 70 66 100 79 69 100 100 98 58 59 75 53 98 56 100 100 100 100 100 100 100 100 100 100 100 100 100 98 100 100
4 4 16 24 44 84 61 54 39 57 65 53 65 70 100 59 85 98 100 100 100 100 100 100 100 100 100 94 86 100 100 100 100 100 100 100 100 100 100 100 99 100 100